Regional Weather Roundup
Issued by NWS

Home | Current Version | Previous Version | Text Only | Print | Product List | Glossary On
Versions: 1 2 3 4 5 6 7 8 9 10 11 12 13 14 15 16 17 18 19 20 21 22 23 24 25 26 27 28 29 30 31 32 33 34 35 36 37 38 39 40 41 42 43 44 45 46 47 48 49 50
000
ASUS42 KFFC 220403
RWRGA
WEATHER ROUNDUP FOR GEORGIA
NATIONAL WEATHER SERVICE PEACHTREE CITY GA
1200 AM EDT MON SEP 22 2014

NOTE: "FAIR" INDICATES FEW OR NO CLOUDS BELOW 12,000 FEET WITH NO
SIGNIFICANT WEATHER AND/OR OBSTRUCTIONS TO VISIBILITY.

* = USE WITH CAUTION. THE STATIONS MARKED WITH AN ASTERISK MAY NOT
REPORT WEATHER SUCH AS PRECIPITATION, FOG, OR THUNDER AND ARE NOT
QUALITY CONTROLLED BY NWS.

THE REMARK "TC" DENOTES TEMPERATURE READING IN DEGREES CELSIUS.

GAZ001>058-220500-
NORTH GEORGIA

CITY           SKY/WX    TMP DP  RH WIND       PRES   REMARKS
ATLANTA        MOCLDY    76  62  62 SW7       29.99S
ATHENS         CLOUDY    75  62  64 W5        29.96S
CHAMBLEE       LGT RAIN  75  63  66 NW6       29.99R
PEACHTREE CITY PTCLDY    68  65  90 CALM      30.00S
ROME           CLOUDY    73  70  90 CALM      29.98R
WEST ATLANTA   CLOUDY    76  64  66 CALM      29.98S
GAINESVILLE    CLOUDY    72  67  84 W8        30.00F
CARTERSVILLE   CLOUDY    71  68  90 CALM      30.00R


CITY           SKY/WX    TMP DP  RH WIND       PRES   REMARKS
DALTON*        MOCLDY    68  68 100 CALM      29.99R FOG
MARIETTA       MOCLDY    72  68  87 W3        30.00S
$$

GAZ059>098-102>109-220500-
CENTRAL GEORGIA

CITY           SKY/WX    TMP DP  RH WIND       PRES   REMARKS
AUGUSTA-BUSH   CLEAR     74  62  66 SW5       29.94F
AUGUSTA-DANIEL CLEAR     76  62  62 SW3       29.96S
COLUMBUS       CLEAR     71  64  78 CALM      29.99F
MACON          CLEAR     70  62  76 W3        29.98F
ROBINS AFB     CLEAR     69  64  85 SE3       29.98S


CITY           SKY/WX    TMP DP  RH WIND       PRES   REMARKS
LAGRANGE*      CLEAR     70  68  94 CALM      30.00F
SYLVANIA*      CLEAR     75  69  83 CALM      29.99S
$$

GAZ099>101-110>166-220500-
SOUTH GEORGIA

CITY           SKY/WX    TMP DP  RH WIND       PRES   REMARKS
SAVANNAH       CLEAR     73  64  73 SW6       29.99S
VALDOSTA       CLEAR     66  63  90 CALM      30.03S
ALMA           CLEAR     65  62  90 CALM      30.00F
ST SIMONS      CLEAR     75  65  70 SW8       30.01S
FT STEWART     CLEAR     69  62  78 CALM      29.98S
ALBANY         CLEAR     68  65  90 CALM      30.02F
HUNTER AFB     CLEAR     73  67  80 SW6       29.97S
MOODY AFB      CLEAR     68  65  91 SE1       30.02S
BRUNSWICK      CLEAR     72  63  73 SW5       30.01S


CITY           SKY/WX    TMP DP  RH WIND       PRES   REMARKS
BAINBRIDGE*    CLEAR     70  64  83 CALM      30.02F
MOULTRIE*      CLEAR     70  63  78 CALM      30.03S
VIDALIA*       CLEAR     70  63  78 SW3       30.00R
DOUGLAS*       CLEAR     72  61  68 CALM      30.02F
$$



USA.gov is the U.S. government's official web portal to all federal, state and local government web resources and services.